Time,TemperatureF,DewpointF,PressureIn,WindDirection,WindDirectionDegrees,WindSpeedMPH,WindSpeedGustMPH,Humidity,HourlyPrecipIn,Conditions,Clouds,dailyrainin,SoftwareType,DateUTC
2013-08-06 00:01:00,63.8,57.6,30.06,NW,321,0.0,0.0,80,0.00,,OVC038,0.00,VWS V14.00,2013-08-06 04:01:00,
2013-08-06 00:02:00,63.8,57.6,30.06,NW,321,0.0,0.0,80,0.00,,OVC038,0.00,VWS V14.00,2013-08-06 04:02:00,
2013-08-06 00:07:00,63.5,57.2,30.06,NW,321,0.0,2.7,80,0.00,,OVC038,0.00,VWS V14.00,2013-08-06 04:07:00,
2013-08-06 00:12:00,63.5,57.5,30.06,NW,321,0.0,0.0,81,0.00,,OVC038,0.00,VWS V14.00,2013-08-06 04:12:00,
2013-08-06 00:17:00,63.7,57.7,30.06,NW,321,0.0,0.0,81,0.00,,OVC038,0.00,VWS V14.00,2013-08-06 04:17:00,
2013-08-06 00:22:00,63.8,57.9,30.06,NW,321,0.0,0.0,81,0.00,,OVC038,0.00,VWS V14.00,2013-08-06 04:22:00,
2013-08-06 00:27:00,64.0,57.8,30.06,NW,321,0.0,0.0,80,0.00,,OVC038,0.00,VWS V14.00,2013-08-06 04:27:00,
2013-08-06 00:32:00,64.0,57.4,30.06,NW,321,0.0,0.0,79,0.00,,OVC038,0.00,VWS V14.00,2013-08-06 04:32:00,
2013-08-06 00:37:00,63.8,57.2,30.06,NW,321,0.0,0.0,79,0.00,,OVC038,0.00,VWS V14.00,2013-08-06 04:37:00,
2013-08-06 00:42:00,63.8,57.2,30.06,NW,321,0.0,0.0,79,0.00,,OVC038,0.00,VWS V14.00,2013-08-06 04:42:00,
2013-08-06 00:48:00,63.8,56.9,30.06,NW,321,0.0,0.0,78,0.00,,OVC038,0.00,VWS V14.00,2013-08-06 04:48:00,
2013-08-06 00:53:00,63.7,57.0,30.06,NW,321,0.0,0.0,79,0.00,,OVC038,0.00,VWS V14.00,2013-08-06 04:53:00,
2013-08-06 00:58:00,63.7,57.0,30.06,NW,321,0.0,0.0,79,0.00,,OVC038,0.00,VWS V14.00,2013-08-06 04:58:00,
2013-08-06 01:03:00,63.7,56.7,30.06,NW,321,0.0,0.0,78,0.00,,BKN110,0.00,VWS V14.00,2013-08-06 05:03:00,
2013-08-06 01:08:00,63.7,56.7,30.06,NW,321,0.0,0.0,78,0.00,,BKN110,0.00,VWS V14.00,2013-08-06 05:08:00,
2013-08-06 01:13:00,63.7,56.7,30.06,NW,321,0.0,0.0,78,0.00,,BKN110,0.00,VWS V14.00,2013-08-06 05:13:00,
2013-08-06 01:18:00,63.5,56.9,30.06,NW,321,0.0,0.0,79,0.00,,BKN110,0.00,VWS V14.00,2013-08-06 05:18:00,
2013-08-06 01:23:00,63.5,56.9,30.06,NW,321,0.0,0.0,79,0.00,,BKN110,0.00,VWS V14.00,2013-08-06 05:23:00,
2013-08-06 01:28:00,63.3,57.4,30.06,NW,321,0.0,0.0,81,0.00,,BKN110,0.00,VWS V14.00,2013-08-06 05:28:00,
2013-08-06 01:33:00,62.7,57.5,30.06,NW,321,0.0,0.0,83,0.00,,BKN110,0.00,VWS V14.00,2013-08-06 05:33:00,
2013-08-06 01:38:00,62.7,57.8,30.06,NW,322,0.0,0.0,84,0.00,,BKN110,0.00,VWS V14.00,2013-08-06 05:38:00,
2013-08-06 01:44:00,62.9,57.7,30.06,NW,322,0.0,0.0,83,0.00,,BKN110,0.00,VWS V14.00,2013-08-06 05:44:00,
2013-08-06 01:49:00,63.1,57.9,30.06,NW,322,2.5,2.7,83,0.00,,BKN110,0.00,VWS V14.00,2013-08-06 05:49:00,
2013-08-06 01:54:00,63.1,57.9,30.06,NW,322,0.0,2.7,83,0.00,,BKN110,0.00,VWS V14.00,2013-08-06 05:54:00,
2013-08-06 01:59:00,63.1,57.5,30.06,NW,322,0.0,0.0,82,0.00,,BKN110,0.00,VWS V14.00,2013-08-06 05:59:00,
2013-08-06 02:04:00,63.1,57.5,30.06,NW,322,0.0,0.0,82,0.00,,OVC090,0.00,VWS V14.00,2013-08-06 06:04:00,
2013-08-06 02:09:00,63.3,57.7,30.06,NW,322,0.0,0.0,82,0.00,,OVC090,0.00,VWS V14.00,2013-08-06 06:09:00,
2013-08-06 02:14:00,63.3,57.7,30.06,NW,322,0.0,0.0,82,0.00,,OVC090,0.00,VWS V14.00,2013-08-06 06:14:00,
2013-08-06 02:19:00,63.3,57.7,30.06,NW,322,0.0,0.0,82,0.00,,OVC090,0.00,VWS V14.00,2013-08-06 06:19:00,
2013-08-06 02:24:00,63.3,57.7,30.06,NW,322,0.0,0.0,82,0.00,,OVC090,0.00,VWS V14.00,2013-08-06 06:24:00,
2013-08-06 02:30:00,63.1,57.5,30.06,NW,322,0.0,0.0,82,0.00,,OVC090,0.00,VWS V14.00,2013-08-06 06:30:00,
2013-08-06 02:35:00,63.3,57.7,30.06,NW,322,0.0,0.0,82,0.00,,OVC090,0.00,VWS V14.00,2013-08-06 06:35:00,
2013-08-06 02:40:00,63.1,57.5,30.06,NW,322,0.0,0.0,82,0.00,,OVC090,0.00,VWS V14.00,2013-08-06 06:40:00,
2013-08-06 02:45:00,63.1,57.5,30.06,NW,322,0.0,0.0,82,0.00,,OVC090,0.00,VWS V14.00,2013-08-06 06:45:00,
2013-08-06 02:50:00,63.1,57.5,30.06,NW,322,0.0,0.0,82,0.00,,OVC090,0.00,VWS V14.00,2013-08-06 06:50:00,
2013-08-06 02:55:00,63.1,57.9,30.06,NW,322,0.0,0.0,83,0.00,,OVC090,0.00,VWS V14.00,2013-08-06 06:55:00,
2013-08-06 03:00:00,63.1,57.9,30.06,NW,322,0.0,0.0,83,0.00,,OVC090,0.00,VWS V14.00,2013-08-06 07:00:00,
2013-08-06 03:05:00,63.1,57.9,30.06,NW,322,0.0,0.0,83,0.00,,OVC090,0.00,VWS V14.00,2013-08-06 07:05:00,
2013-08-06 03:11:00,63.1,57.9,30.06,NW,322,0.0,0.0,83,0.00,,OVC090,0.00,VWS V14.00,2013-08-06 07:11:00,
2013-08-06 03:16:00,63.1,57.9,30.06,NW,322,0.0,0.0,83,0.00,,OVC090,0.00,VWS V14.00,2013-08-06 07:16:00,
2013-08-06 03:21:00,63.1,58.5,30.06,NW,322,0.0,0.0,85,0.00,,OVC090,0.00,VWS V14.00,2013-08-06 07:21:00,
2013-08-06 03:26:00,62.9,59.0,30.06,NW,322,0.0,0.0,87,0.00,,OVC090,0.00,VWS V14.00,2013-08-06 07:26:00,
2013-08-06 03:31:00,63.1,59.2,30.03,NW,322,0.0,0.0,87,0.00,,OVC090,0.00,VWS V14.00,2013-08-06 07:31:00,
2013-08-06 03:36:00,63.1,58.5,30.03,NW,322,0.0,0.0,85,0.00,,OVC090,0.00,VWS V14.00,2013-08-06 07:36:00,
2013-08-06 03:41:00,63.1,58.2,30.03,NW,322,0.0,0.0,84,0.00,,OVC090,0.00,VWS V14.00,2013-08-06 07:41:00,
2013-08-06 03:46:00,63.1,58.2,30.03,NW,322,0.0,0.0,84,0.00,,OVC090,0.00,VWS V14.00,2013-08-06 07:46:00,
2013-08-06 03:51:00,63.1,58.9,30.03,NW,322,0.0,0.0,86,0.00,,OVC090,0.00,VWS V14.00,2013-08-06 07:51:00,
2013-08-06 03:57:00,63.1,59.5,30.03,NW,322,0.0,0.0,88,0.00,,OVC090,0.00,VWS V14.00,2013-08-06 07:57:00,
2013-08-06 04:02:00,63.1,59.5,30.03,NW,322,0.0,0.0,88,0.00,,OVC100,0.00,VWS V14.00,2013-08-06 08:02:00,
2013-08-06 04:07:00,63.1,59.5,30.03,NW,322,0.0,0.0,88,0.00,,OVC100,0.00,VWS V14.00,2013-08-06 08:07:00,
2013-08-06 04:12:00,63.1,59.2,30.03,NW,322,0.0,0.0,87,0.00,,OVC100,0.00,VWS V14.00,2013-08-06 08:12:00,
2013-08-06 04:17:00,63.1,58.9,30.03,NW,322,0.0,0.0,86,0.00,,OVC100,0.00,VWS V14.00,2013-08-06 08:17:00,
2013-08-06 04:22:00,63.1,58.9,30.03,NW,322,0.0,0.0,86,0.00,,OVC100,0.00,VWS V14.00,2013-08-06 08:22:00,
2013-08-06 04:27:00,63.1,58.9,30.03,NW,322,0.0,0.0,86,0.00,,OVC100,0.00,VWS V14.00,2013-08-06 08:27:00,
2013-08-06 04:32:00,63.1,59.2,30.03,NW,322,0.0,0.0,87,0.00,,OVC100,0.00,VWS V14.00,2013-08-06 08:32:00,
2013-08-06 04:38:00,63.1,59.5,30.03,NW,322,0.0,0.0,88,0.00,,OVC100,0.00,VWS V14.00,2013-08-06 08:38:00,
2013-08-06 04:43:00,63.1,59.5,30.03,NW,322,0.0,0.0,88,0.00,,OVC100,0.00,VWS V14.00,2013-08-06 08:43:00,
2013-08-06 04:48:00,62.9,59.6,30.03,NW,322,0.0,0.0,89,0.00,,OVC100,0.00,VWS V14.00,2013-08-06 08:48:00,
2013-08-06 04:53:00,62.9,60.0,30.03,NW,322,0.0,0.0,90,0.00,,OVC100,0.00,VWS V14.00,2013-08-06 08:53:00,
2013-08-06 04:58:00,62.9,60.3,30.03,NW,322,0.0,0.0,91,0.00,,OVC100,0.00,VWS V14.00,2013-08-06 08:58:00,
2013-08-06 05:03:00,62.7,60.1,30.03,NW,322,0.0,0.0,91,0.00,,OVC110,0.00,VWS V14.00,2013-08-06 09:03:00,
2013-08-06 05:08:00,62.9,60.3,30.03,NW,322,0.0,0.0,91,0.00,,OVC110,0.00,VWS V14.00,2013-08-06 09:08:00,
2013-08-06 05:13:00,63.1,60.1,30.03,NW,322,0.0,0.0,90,0.00,,OVC110,0.00,VWS V14.00,2013-08-06 09:13:00,
2013-08-06 05:18:00,63.1,59.8,30.03,NW,322,0.0,0.0,89,0.00,,OVC110,0.00,VWS V14.00,2013-08-06 09:18:00,
2013-08-06 05:23:00,63.1,59.5,30.03,NW,322,0.0,0.0,88,0.00,,OVC110,0.00,VWS V14.00,2013-08-06 09:23:00,
2013-08-06 05:28:00,63.1,59.5,30.03,NW,322,0.0,0.0,88,0.00,,OVC110,0.00,VWS V14.00,2013-08-06 09:28:00,
2013-08-06 05:34:00,63.1,59.5,30.03,NW,322,0.0,0.0,88,0.00,,OVC110,0.00,VWS V14.00,2013-08-06 09:34:00,
2013-08-06 05:39:00,62.9,59.3,30.03,NW,322,0.0,0.0,88,0.00,,OVC110,0.00,VWS V14.00,2013-08-06 09:39:00,
2013-08-06 05:44:00,63.1,59.5,30.03,NW,322,0.0,0.0,88,0.00,,OVC110,0.00,VWS V14.00,2013-08-06 09:44:00,
2013-08-06 05:49:00,62.9,60.0,30.03,NW,322,0.0,0.0,90,0.00,,OVC110,0.00,VWS V14.00,2013-08-06 09:49:00,
2013-08-06 05:54:00,62.9,60.0,30.03,NW,322,0.0,0.0,90,0.01,,OVC110,0.01,VWS V14.00,2013-08-06 09:54:00,
2013-08-06 05:59:00,62.9,60.3,30.03,NW,322,0.0,0.0,91,0.01,,OVC110,0.01,VWS V14.00,2013-08-06 09:59:00,
2013-08-06 06:04:00,62.9,60.3,30.03,NW,322,0.0,0.0,91,0.01,,BKN120,0.01,VWS V14.00,2013-08-06 10:04:00,
2013-08-06 06:09:00,62.7,60.4,30.03,NW,322,0.0,0.0,92,0.01,,BKN120,0.01,VWS V14.00,2013-08-06 10:09:00,
2013-08-06 06:14:00,62.5,60.5,30.03,NW,322,0.0,0.0,93,0.01,,BKN120,0.01,VWS V14.00,2013-08-06 10:14:00,
2013-08-06 06:20:00,62.5,60.5,30.06,East,81,0.0,2.7,93,0.01,,BKN120,0.01,VWS V14.00,2013-08-06 10:20:00,
2013-08-06 06:25:00,62.5,60.5,30.06,East,81,0.0,2.7,93,0.01,,BKN120,0.01,VWS V14.00,2013-08-06 10:25:00,
2013-08-06 06:30:00,62.5,60.8,30.06,NW,326,0.0,2.7,94,0.01,,BKN120,0.01,VWS V14.00,2013-08-06 10:30:00,
2013-08-06 06:35:00,62.4,60.9,30.06,NNW,338,3.4,5.9,95,0.01,,BKN120,0.01,VWS V14.00,2013-08-06 10:35:00,
2013-08-06 06:40:00,62.4,60.9,30.06,ESE,114,0.0,2.7,95,0.01,,BKN120,0.01,VWS V14.00,2013-08-06 10:40:00,
2013-08-06 06:45:00,62.4,60.9,30.06,SE,139,3.0,3.2,95,0.02,,BKN120,0.02,VWS V14.00,2013-08-06 10:45:00,
2013-08-06 06:50:00,62.4,61.2,30.06,ENE,72,0.0,0.0,96,0.01,,BKN120,0.02,VWS V14.00,2013-08-06 10:50:00,
2013-08-06 06:55:00,62.2,61.0,30.06,ENE,72,0.0,2.7,96,0.01,,BKN120,0.02,VWS V14.00,2013-08-06 10:55:00,
2013-08-06 07:00:00,62.2,61.0,30.06,ENE,69,0.0,0.0,96,0.01,,OVC085,0.02,VWS V14.00,2013-08-06 11:00:00,
2013-08-06 07:06:00,62.2,61.3,30.06,ENE,69,0.0,0.0,97,0.01,,OVC085,0.02,VWS V14.00,2013-08-06 11:06:00,
2013-08-06 07:11:00,62.2,61.3,30.06,ENE,69,0.0,0.0,97,0.02,,OVC085,0.03,VWS V14.00,2013-08-06 11:11:00,
2013-08-06 07:16:00,62.4,61.8,30.06,ENE,69,0.0,0.0,98,0.03,,OVC085,0.04,VWS V14.00,2013-08-06 11:16:00,
2013-08-06 07:21:00,62.5,62.0,30.06,ENE,69,0.0,0.0,98,0.03,,OVC085,0.04,VWS V14.00,2013-08-06 11:21:00,
2013-08-06 07:26:00,62.5,61.7,30.06,ENE,69,0.0,0.0,97,0.03,,OVC085,0.04,VWS V14.00,2013-08-06 11:26:00,
2013-08-06 07:31:00,62.5,61.7,30.03,ENE,69,0.0,0.0,97,0.03,,OVC085,0.04,VWS V14.00,2013-08-06 11:31:00,
2013-08-06 07:36:00,62.5,62.0,30.03,ENE,69,0.0,0.0,98,0.03,,OVC085,0.04,VWS V14.00,2013-08-06 11:36:00,
2013-08-06 07:41:00,62.7,62.2,30.03,SE,132,0.0,0.0,98,0.03,,OVC085,0.04,VWS V14.00,2013-08-06 11:41:00,
2013-08-06 07:46:00,62.9,62.3,30.06,SE,132,0.0,0.0,98,0.02,,OVC085,0.04,VWS V14.00,2013-08-06 11:46:00,
2013-08-06 07:51:00,62.7,62.2,30.06,SE,132,0.0,0.0,98,0.02,,OVC085,0.04,VWS V14.00,2013-08-06 11:51:00,
2013-08-06 07:56:00,62.9,62.3,30.06,SE,132,0.0,0.0,98,0.02,,OVC085,0.04,VWS V14.00,2013-08-06 11:56:00,
2013-08-06 08:02:00,63.1,62.5,30.06,SE,132,0.0,0.0,98,0.02,,BKN080,0.04,VWS V14.00,2013-08-06 12:02:00,
2013-08-06 08:07:00,62.9,62.3,30.06,SE,132,0.0,0.0,98,0.02,,BKN080,0.04,VWS V14.00,2013-08-06 12:07:00,
2013-08-06 08:12:00,63.1,62.5,30.06,SE,132,0.0,0.0,98,0.01,,BKN080,0.04,VWS V14.00,2013-08-06 12:12:00,
2013-08-06 08:17:00,63.3,62.7,30.06,SSE,151,0.0,2.7,98,0.00,,BKN080,0.04,VWS V14.00,2013-08-06 12:17:00,
2013-08-06 08:22:00,63.3,62.7,30.06,SSE,151,0.0,0.0,98,0.00,,BKN080,0.04,VWS V14.00,2013-08-06 12:22:00,
2013-08-06 08:27:00,63.5,62.9,30.06,SSE,151,0.0,3.2,98,0.00,,BKN080,0.04,VWS V14.00,2013-08-06 12:27:00,
2013-08-06 08:32:00,63.5,62.9,30.06,SSE,154,0.0,0.0,98,0.00,,BKN080,0.04,VWS V14.00,2013-08-06 12:32:00,
2013-08-06 08:37:00,63.7,63.1,30.06,SSE,154,0.0,0.0,98,0.00,,BKN080,0.04,VWS V14.00,2013-08-06 12:37:00,
2013-08-06 08:42:00,63.8,63.3,30.06,SSE,154,0.0,0.0,98,0.00,,BKN080,0.04,VWS V14.00,2013-08-06 12:42:00,
2013-08-06 08:47:00,63.8,63.3,30.06,SSE,154,0.0,0.0,98,0.00,,BKN080,0.04,VWS V14.00,2013-08-06 12:47:00,
2013-08-06 08:53:00,63.8,63.3,30.06,SSE,154,0.0,0.0,98,0.00,,BKN080,0.04,VWS V14.00,2013-08-06 12:53:00,
2013-08-06 08:58:00,64.4,63.8,30.06,SSW,203,0.0,0.0,98,0.00,,BKN080,0.04,VWS V14.00,2013-08-06 12:58:00,
2013-08-06 09:03:00,64.4,63.8,30.06,SSW,203,0.0,0.0,98,0.00,,OVC065,0.04,VWS V14.00,2013-08-06 13:03:00,
2013-08-06 09:08:00,64.2,63.7,30.06,SSW,203,0.0,0.0,98,0.00,,OVC065,0.04,VWS V14.00,2013-08-06 13:08:00,
2013-08-06 09:13:00,64.4,63.8,30.06,SSW,203,0.0,0.0,98,0.00,,OVC065,0.04,VWS V14.00,2013-08-06 13:13:00,
2013-08-06 09:18:00,64.4,63.8,30.06,SSW,203,0.0,0.0,98,0.00,,OVC065,0.04,VWS V14.00,2013-08-06 13:18:00,
2013-08-06 09:23:00,64.6,64.0,30.06,SSW,203,0.0,0.0,98,0.00,,OVC065,0.04,VWS V14.00,2013-08-06 13:23:00,
2013-08-06 09:28:00,65.2,64.6,30.06,NW,324,0.0,0.0,98,0.00,,OVC065,0.04,VWS V14.00,2013-08-06 13:28:00,
2013-08-06 09:33:00,65.7,65.1,30.06,NW,321,0.0,0.0,98,0.00,,OVC065,0.04,VWS V14.00,2013-08-06 13:33:00,
2013-08-06 09:38:00,65.9,65.3,30.06,NW,321,0.0,0.0,98,0.00,,OVC065,0.04,VWS V14.00,2013-08-06 13:38:00,
2013-08-06 09:43:00,66.1,65.5,30.06,East,87,0.0,3.2,98,0.00,,OVC065,0.04,VWS V14.00,2013-08-06 13:43:00,
2013-08-06 09:49:00,66.3,65.7,30.06,East,87,0.0,0.0,98,0.00,,OVC065,0.04,VWS V14.00,2013-08-06 13:49:00,
2013-08-06 09:54:00,66.4,65.9,30.06,SE,144,0.0,0.0,98,0.00,,OVC065,0.04,VWS V14.00,2013-08-06 13:54:00,
2013-08-06 09:59:00,66.6,66.1,30.06,SE,144,0.0,0.0,98,0.00,,OVC065,0.04,VWS V14.00,2013-08-06 13:59:00,
2013-08-06 10:04:00,67.2,66.6,30.06,SSW,211,0.0,0.0,98,0.00,,OVC065,0.04,VWS V14.00,2013-08-06 14:04:00,
2013-08-06 10:09:00,67.2,66.3,30.06,SE,144,3.0,3.8,97,0.00,,OVC065,0.04,VWS V14.00,2013-08-06 14:09:00,
2013-08-06 10:14:00,67.6,66.7,30.06,SSE,153,0.0,2.7,97,0.00,,OVC065,0.04,VWS V14.00,2013-08-06 14:14:00,
2013-08-06 10:19:00,67.7,66.9,30.06,South,178,0.0,0.0,97,0.00,,OVC080,0.04,VWS V14.00,2013-08-06 14:19:00,
2013-08-06 10:24:00,67.9,66.4,30.06,WNW,295,0.0,3.2,95,0.00,,OVC080,0.04,VWS V14.00,2013-08-06 14:24:00,
2013-08-06 10:30:00,68.3,66.8,30.06,West,263,0.0,0.0,95,0.00,,OVC080,0.04,VWS V14.00,2013-08-06 14:30:00,
2013-08-06 10:34:00,68.5,66.1,30.06,SSE,164,2.5,3.2,92,0.00,,OVC080,0.04,VWS V14.00,2013-08-06 14:34:00,
2013-08-06 10:40:00,68.5,65.8,30.06,NW,320,0.0,2.7,91,0.00,,OVC080,0.04,VWS V14.00,2013-08-06 14:40:00,
2013-08-06 10:45:00,68.5,65.4,30.06,South,177,2.5,3.8,90,0.00,,OVC080,0.04,VWS V14.00,2013-08-06 14:45:00,
2013-08-06 10:50:00,68.7,65.6,30.06,SSE,159,3.0,4.3,90,0.00,,OVC080,0.04,VWS V14.00,2013-08-06 14:50:00,
2013-08-06 10:55:00,69.0,65.3,30.06,NNE,29,3.0,3.2,88,0.00,,OVC080,0.04,VWS V14.00,2013-08-06 14:55:00,
2013-08-06 11:00:00,69.2,65.2,30.06,ESE,123,2.5,3.2,87,0.00,,OVC080,0.04,VWS V14.00,2013-08-06 15:00:00,
2013-08-06 11:05:00,69.6,65.6,30.06,SSE,162,3.9,4.3,87,0.00,,OVC080,0.04,VWS V14.00,2013-08-06 15:05:00,
2013-08-06 11:10:00,69.8,64.4,30.06,SSE,167,4.4,4.8,83,0.00,,OVC080,0.04,VWS V14.00,2013-08-06 15:10:00,
2013-08-06 11:15:00,69.6,64.2,30.06,SE,131,0.0,2.7,83,0.00,,OVC080,0.04,VWS V14.00,2013-08-06 15:15:00,
2013-08-06 11:20:00,70.2,64.8,30.06,SE,125,3.0,4.3,83,0.00,,OVC080,0.04,VWS V14.00,2013-08-06 15:20:00,
2013-08-06 11:25:00,70.3,64.9,30.06,SE,131,2.5,2.7,83,0.00,,OVC080,0.04,VWS V14.00,2013-08-06 15:25:00,
2013-08-06 11:30:00,71.1,64.6,30.06,WSW,251,2.5,2.7,80,0.00,,OVC080,0.04,VWS V14.00,2013-08-06 15:30:00,
2013-08-06 11:35:00,71.6,64.1,30.06,South,189,3.0,5.9,77,0.00,,OVC080,0.04,VWS V14.00,2013-08-06 15:35:00,
2013-08-06 11:41:00,71.6,64.4,30.06,SSE,168,3.0,3.2,78,0.00,,OVC080,0.04,VWS V14.00,2013-08-06 15:41:00,
2013-08-06 11:46:00,71.8,64.2,30.06,SSW,208,3.9,4.3,77,0.00,,OVC080,0.04,VWS V14.00,2013-08-06 15:46:00,
2013-08-06 11:51:00,72.2,62.7,30.06,SSW,213,0.0,2.7,72,0.00,,OVC080,0.04,VWS V14.00,2013-08-06 15:51:00,
2013-08-06 11:56:00,72.6,63.4,30.06,WNW,286,3.4,3.8,73,0.00,,OVC080,0.04,VWS V14.00,2013-08-06 15:56:00,
2013-08-06 12:01:00,72.4,62.8,30.06,WSW,238,0.0,4.3,72,0.00,,SCT075,0.04,VWS V14.00,2013-08-06 16:01:00,
2013-08-06 12:06:00,72.8,63.6,30.06,SSE,152,3.0,5.9,73,0.00,,SCT075,0.04,VWS V14.00,2013-08-06 16:06:00,
2013-08-06 12:11:00,73.3,62.9,30.06,SSE,162,6.4,7.0,70,0.00,,SCT075,0.04,VWS V14.00,2013-08-06 16:11:00,
2013-08-06 12:16:00,73.5,63.5,30.06,SSW,209,2.5,3.8,71,0.00,,SCT075,0.04,VWS V14.00,2013-08-06 16:16:00,
2013-08-06 12:21:00,74.1,63.2,30.06,South,169,3.9,4.3,69,0.00,,SCT075,0.04,VWS V14.00,2013-08-06 16:21:00,
2013-08-06 12:26:00,74.4,64.0,30.06,SE,144,3.9,6.4,70,0.00,,SCT075,0.04,VWS V14.00,2013-08-06 16:26:00,
2013-08-06 12:32:00,75.0,64.5,30.06,West,267,3.9,4.3,70,0.00,,SCT075,0.04,VWS V14.00,2013-08-06 16:32:00,
2013-08-06 12:36:00,75.3,61.0,30.06,SE,128,4.4,6.4,61,0.00,,SCT075,0.04,VWS V14.00,2013-08-06 16:36:00,
2013-08-06 12:42:00,75.7,61.3,30.06,NE,45,3.4,3.8,61,0.00,,SCT075,0.04,VWS V14.00,2013-08-06 16:42:00,
2013-08-06 12:47:00,75.5,61.6,30.06,SW,232,4.4,7.5,62,0.00,,SCT075,0.04,VWS V14.00,2013-08-06 16:47:00,
2013-08-06 12:52:00,75.3,60.5,30.06,SW,233,3.4,3.8,60,0.00,,SCT075,0.04,VWS V14.00,2013-08-06 16:52:00,
2013-08-06 12:57:00,76.1,60.2,30.06,South,188,2.5,3.8,58,0.00,,SCT075,0.04,VWS V14.00,2013-08-06 16:57:00,
2013-08-06 13:02:00,76.6,60.3,30.06,SSW,207,3.0,7.0,57,0.00,,BKN075,0.04,VWS V14.00,2013-08-06 17:02:00,
2013-08-06 13:07:00,77.0,61.1,30.06,South,177,13.0,14.2,58,0.00,,BKN075,0.04,VWS V14.00,2013-08-06 17:07:00,
2013-08-06 13:12:00,77.6,61.6,30.06,NNW,332,3.0,4.8,58,0.00,,BKN075,0.04,VWS V14.00,2013-08-06 17:12:00,
2013-08-06 13:17:00,77.8,60.8,30.06,South,187,5.4,7.0,56,0.00,,BKN075,0.04,VWS V14.00,2013-08-06 17:17:00,
2013-08-06 13:22:00,77.8,60.3,30.06,SSE,159,5.9,6.4,55,0.00,,BKN075,0.04,VWS V14.00,2013-08-06 17:22:00,
2013-08-06 13:27:00,78.1,60.7,30.06,SSW,210,3.9,9.1,55,0.00,,BKN075,0.04,VWS V14.00,2013-08-06 17:27:00,
2013-08-06 13:32:00,78.3,58.7,30.06,SW,216,3.4,6.4,51,0.00,,BKN075,0.04,VWS V14.00,2013-08-06 17:32:00,
2013-08-06 13:38:00,78.7,60.1,30.06,South,191,3.9,5.9,53,0.00,,BKN075,0.04,VWS V14.00,2013-08-06 17:38:00,
2013-08-06 13:43:00,78.7,58.5,30.06,SSW,195,4.4,9.7,50,0.00,,BKN075,0.04,VWS V14.00,2013-08-06 17:43:00,
2013-08-06 13:48:00,79.2,60.7,30.06,SSE,159,6.9,7.5,53,0.00,,BKN075,0.04,VWS V14.00,2013-08-06 17:48:00,
2013-08-06 13:53:00,79.6,59.9,30.06,SSE,153,3.9,7.5,51,0.00,,BKN075,0.04,VWS V14.00,2013-08-06 17:53:00,
2013-08-06 13:58:00,79.6,58.8,30.06,WNW,303,3.0,4.3,49,0.00,,BKN075,0.04,VWS V14.00,2013-08-06 17:58:00,
2013-08-06 14:03:00,79.8,60.1,30.06,SSW,199,6.9,7.5,51,0.00,,FEW038,0.04,VWS V14.00,2013-08-06 18:03:00,
2013-08-06 14:08:00,80.3,60.6,30.06,WSW,255,8.9,9.7,51,0.00,,FEW038,0.04,VWS V14.00,2013-08-06 18:08:00,
2013-08-06 14:13:00,80.5,59.1,30.06,SSW,200,4.4,9.9,48,0.00,,FEW038,0.04,VWS V14.00,2013-08-06 18:13:00,
2013-08-06 14:18:00,80.7,59.8,30.06,SSW,213,3.9,7.0,49,0.00,,FEW038,0.04,VWS V14.00,2013-08-06 18:18:00,
2013-08-06 14:23:00,80.7,59.2,30.06,ESE,103,2.5,3.2,48,0.00,,FEW038,0.04,VWS V14.00,2013-08-06 18:23:00,
2013-08-06 14:28:00,80.2,59.9,30.06,SE,144,3.4,6.4,50,0.00,,FEW038,0.04,VWS V14.00,2013-08-06 18:28:00,
2013-08-06 14:33:00,80.7,58.6,30.06,WSW,251,3.4,9.1,47,0.00,,FEW038,0.04,VWS V14.00,2013-08-06 18:33:00,
2013-08-06 14:38:00,81.5,61.0,30.06,SE,146,6.4,9.9,50,0.00,,FEW038,0.04,VWS V14.00,2013-08-06 18:38:00,
2013-08-06 14:44:00,81.1,58.4,30.06,SSW,210,3.4,10.5,46,0.00,,FEW038,0.04,VWS V14.00,2013-08-06 18:44:00,
2013-08-06 14:49:00,81.1,60.1,30.06,South,188,3.4,7.5,49,0.00,,FEW038,0.04,VWS V14.00,2013-08-06 18:49:00,
2013-08-06 14:54:00,80.5,59.6,30.06,South,187,3.0,3.8,49,0.00,,FEW038,0.04,VWS V14.00,2013-08-06 18:54:00,
2013-08-06 14:59:00,80.0,59.7,30.06,SSE,151,3.4,4.8,50,0.00,,FEW038,0.04,VWS V14.00,2013-08-06 18:59:00,
2013-08-06 15:04:00,80.3,60.0,30.06,SE,136,0.0,9.1,50,0.00,,BKN044,0.04,VWS V14.00,2013-08-06 19:04:00,
2013-08-06 15:09:00,81.1,60.1,30.06,ESE,116,4.4,5.9,49,0.00,,BKN044,0.04,VWS V14.00,2013-08-06 19:09:00,
2013-08-06 15:14:00,81.1,59.0,30.06,East,91,5.9,7.0,47,0.00,,BKN044,0.04,VWS V14.00,2013-08-06 19:14:00,
2013-08-06 15:19:00,80.5,60.2,30.06,SE,130,3.9,4.8,50,0.00,,BKN044,0.04,VWS V14.00,2013-08-06 19:19:00,
2013-08-06 15:24:00,80.0,59.7,30.06,SSW,193,3.9,4.3,50,0.00,,BKN044,0.04,VWS V14.00,2013-08-06 19:24:00,
2013-08-06 15:29:00,80.3,60.0,30.06,South,172,3.9,5.9,50,0.00,,BKN044,0.04,VWS V14.00,2013-08-06 19:29:00,
2013-08-06 15:34:00,80.9,60.5,30.03,ESE,123,6.4,7.0,50,0.00,,BKN044,0.04,VWS V14.00,2013-08-06 19:34:00,
2013-08-06 15:39:00,81.1,59.0,30.03,SE,124,5.4,8.6,47,0.00,,BKN044,0.04,VWS V14.00,2013-08-06 19:39:00,
2013-08-06 15:44:00,80.9,59.4,30.03,SSE,157,0.0,0.0,48,0.00,,BKN044,0.04,VWS V14.00,2013-08-06 19:44:00,
2013-08-06 15:49:00,80.3,60.0,30.03,South,177,2.5,3.2,50,0.00,,BKN044,0.04,VWS V14.00,2013-08-06 19:49:00,
2013-08-06 15:54:00,81.1,61.8,30.03,SSE,164,3.9,4.8,52,0.00,,BKN044,0.04,VWS V14.00,2013-08-06 19:54:00,
2013-08-06 16:00:00,80.7,58.6,30.03,West,263,3.4,4.8,47,0.00,,BKN044,0.04,VWS V14.00,2013-08-06 20:00:00,
2013-08-06 16:05:00,80.2,58.7,30.06,SE,137,5.9,6.4,48,0.00,,FEW037,0.04,VWS V14.00,2013-08-06 20:05:00,
2013-08-06 16:10:00,80.2,59.9,30.06,ESE,109,2.5,4.3,50,0.00,,FEW037,0.04,VWS V14.00,2013-08-06 20:10:00,
2013-08-06 16:15:00,80.2,59.9,30.06,SW,225,3.4,4.3,50,0.00,,FEW037,0.04,VWS V14.00,2013-08-06 20:15:00,
2013-08-06 16:20:00,81.5,59.3,30.06,SSE,163,5.9,7.5,47,0.00,,FEW037,0.04,VWS V14.00,2013-08-06 20:20:00,
2013-08-06 16:25:00,81.7,60.7,30.06,SE,138,3.9,4.3,49,0.00,,FEW037,0.04,VWS V14.00,2013-08-06 20:25:00,
2013-08-06 16:30:00,80.7,58.6,30.06,SE,130,3.9,6.4,47,0.00,,FEW037,0.04,VWS V14.00,2013-08-06 20:30:00,
2013-08-06 16:34:00,80.5,59.6,30.06,SW,217,3.0,4.3,49,0.00,,FEW037,0.04,VWS V14.00,2013-08-06 20:34:00,
2013-08-06 16:39:00,79.8,60.1,30.06,ESE,104,0.0,0.0,51,0.00,,FEW037,0.04,VWS V14.00,2013-08-06 20:39:00,
2013-08-06 16:44:00,79.4,59.2,30.06,South,176,2.5,3.8,50,0.00,,FEW037,0.04,VWS V14.00,2013-08-06 20:44:00,
2013-08-06 16:49:00,79.2,59.6,30.03,South,188,3.9,4.3,51,0.00,,FEW037,0.04,VWS V14.00,2013-08-06 20:49:00,
2013-08-06 16:54:00,79.2,60.1,30.03,SE,135,3.4,4.3,52,0.00,,FEW037,0.04,VWS V14.00,2013-08-06 20:54:00,
2013-08-06 16:59:00,78.7,59.6,30.03,SE,124,3.4,4.8,52,0.00,,FEW037,0.04,VWS V14.00,2013-08-06 20:59:00,
2013-08-06 17:04:00,78.5,60.0,30.03,South,169,8.4,9.7,53,0.00,,BKN060,0.04,VWS V14.00,2013-08-06 21:04:00,
2013-08-06 17:09:00,78.9,59.2,30.03,WSW,242,4.4,4.8,51,0.00,,BKN060,0.04,VWS V14.00,2013-08-06 21:09:00,
2013-08-06 17:14:00,78.9,59.8,30.03,South,184,3.0,4.3,52,0.00,,BKN060,0.04,VWS V14.00,2013-08-06 21:14:00,
2013-08-06 17:19:00,79.1,59.9,30.03,SSW,197,4.9,7.5,52,0.00,,BKN060,0.04,VWS V14.00,2013-08-06 21:19:00,
2013-08-06 17:25:00,79.6,59.9,30.03,South,191,6.9,7.5,51,0.00,,BKN060,0.04,VWS V14.00,2013-08-06 21:25:00,
2013-08-06 17:30:00,79.4,59.7,30.03,SSE,162,3.4,4.3,51,0.00,,BKN060,0.04,VWS V14.00,2013-08-06 21:30:00,
2013-08-06 17:35:00,79.2,59.6,30.03,South,190,3.0,3.8,51,0.00,,BKN060,0.04,VWS V14.00,2013-08-06 21:35:00,
2013-08-06 17:40:00,79.2,60.1,30.03,South,179,4.4,4.8,52,0.00,,BKN060,0.04,VWS V14.00,2013-08-06 21:40:00,
2013-08-06 17:45:00,79.6,59.9,30.03,South,179,5.9,6.4,51,0.00,,BKN060,0.04,VWS V14.00,2013-08-06 21:45:00,
2013-08-06 17:50:00,79.8,60.1,30.03,West,260,0.0,3.8,51,0.00,,BKN060,0.04,VWS V14.00,2013-08-06 21:50:00,
2013-08-06 17:55:00,79.8,59.0,30.03,SW,221,5.4,7.5,49,0.00,,BKN060,0.04,VWS V14.00,2013-08-06 21:55:00,
2013-08-06 18:00:00,80.0,59.7,30.06,SSE,164,3.0,4.8,50,0.00,,FEW055,0.04,VWS V14.00,2013-08-06 22:00:00,
2013-08-06 18:05:00,79.8,59.5,30.06,West,280,3.9,6.4,50,0.00,,FEW055,0.04,VWS V14.00,2013-08-06 22:05:00,
2013-08-06 18:10:00,79.8,60.1,30.06,SSW,197,3.0,3.2,51,0.00,,FEW055,0.04,VWS V14.00,2013-08-06 22:10:00,
2013-08-06 18:15:00,79.6,58.8,30.06,SW,222,4.4,4.8,49,0.00,,FEW055,0.04,VWS V14.00,2013-08-06 22:15:00,
2013-08-06 18:20:00,79.6,59.9,30.06,South,182,5.9,6.4,51,0.00,,FEW055,0.04,VWS V14.00,2013-08-06 22:20:00,
2013-08-06 18:26:00,79.8,60.1,30.06,SSW,196,6.9,7.5,51,0.00,,FEW055,0.04,VWS V14.00,2013-08-06 22:26:00,
2013-08-06 18:31:00,79.4,58.0,30.06,SSW,196,5.9,7.5,48,0.00,,FEW055,0.04,VWS V14.00,2013-08-06 22:31:00,
2013-08-06 18:36:00,79.4,58.6,30.06,SSW,209,3.0,8.1,49,0.00,,FEW055,0.04,VWS V14.00,2013-08-06 22:36:00,
2013-08-06 18:41:00,79.2,59.0,30.06,SSE,156,2.5,4.3,50,0.00,,FEW055,0.04,VWS V14.00,2013-08-06 22:41:00,
2013-08-06 18:46:00,79.4,59.7,30.06,SSW,212,4.4,4.8,51,0.00,,FEW055,0.04,VWS V14.00,2013-08-06 22:46:00,
2013-08-06 18:51:00,79.2,59.6,30.06,SSW,197,3.0,3.2,51,0.00,,FEW055,0.04,VWS V14.00,2013-08-06 22:51:00,
2013-08-06 18:56:00,79.1,59.9,30.06,WSW,258,3.9,4.3,52,0.00,,FEW055,0.04,VWS V14.00,2013-08-06 22:56:00,
2013-08-06 18:57:00,79.1,59.4,30.06,SW,216,3.0,3.8,51,0.00,,FEW055,0.04,VWS V14.00,2013-08-06 22:57:00,
2013-08-06 19:02:00,78.9,59.2,30.06,West,274,3.0,4.3,51,0.00,,OVC070,0.04,VWS V14.00,2013-08-06 23:02:00,
2013-08-06 19:07:00,78.7,59.6,30.06,SW,233,3.0,3.2,52,0.00,,OVC070,0.04,VWS V14.00,2013-08-06 23:07:00,
2013-08-06 19:12:00,78.7,60.1,30.06,SW,214,0.0,0.0,53,0.00,,OVC070,0.04,VWS V14.00,2013-08-06 23:12:00,
2013-08-06 19:17:00,78.7,60.7,30.06,SSW,206,3.0,3.8,54,0.00,,OVC070,0.04,VWS V14.00,2013-08-06 23:17:00,
2013-08-06 19:23:00,78.3,60.8,30.06,SSE,163,3.9,4.3,55,0.00,,OVC070,0.04,VWS V14.00,2013-08-06 23:23:00,
2013-08-06 19:28:00,77.8,61.3,30.06,South,177,0.0,0.0,57,0.00,,OVC070,0.04,VWS V14.00,2013-08-06 23:28:00,
2013-08-06 19:33:00,77.6,61.6,30.06,South,177,0.0,0.0,58,0.00,,OVC070,0.04,VWS V14.00,2013-08-06 23:33:00,
2013-08-06 19:38:00,77.2,62.2,30.06,North,353,0.0,2.7,60,0.00,,OVC070,0.04,VWS V14.00,2013-08-06 23:38:00,
2013-08-06 19:43:00,77.2,62.7,30.06,North,353,0.0,0.0,61,0.00,,OVC070,0.04,VWS V14.00,2013-08-06 23:43:00,
2013-08-06 19:48:00,76.3,63.2,30.06,North,353,0.0,0.0,64,0.00,,OVC070,0.04,VWS V14.00,2013-08-06 23:48:00,
2013-08-06 19:53:00,75.7,63.1,30.06,North,353,0.0,0.0,65,0.00,,OVC070,0.04,VWS V14.00,2013-08-06 23:53:00,
2013-08-06 19:58:00,75.7,63.1,30.06,North,353,0.0,0.0,65,0.00,,OVC070,0.04,VWS V14.00,2013-08-06 23:58:00,
2013-08-06 20:03:00,75.5,63.0,30.06,North,353,0.0,0.0,65,0.00,,SCT065,0.04,VWS V14.00,2013-08-07 00:03:00,
2013-08-06 20:08:00,75.5,62.5,30.06,North,353,0.0,0.0,64,0.00,,SCT065,0.04,VWS V14.00,2013-08-07 00:08:00,
2013-08-06 20:13:00,75.0,62.0,30.06,NNE,32,0.0,0.0,64,0.00,,SCT065,0.04,VWS V14.00,2013-08-07 00:13:00,
2013-08-06 20:18:00,74.4,61.9,30.06,NNE,32,0.0,0.0,65,0.00,,SCT065,0.04,VWS V14.00,2013-08-07 00:18:00,
2013-08-06 20:23:00,73.9,62.2,30.06,North,3,0.0,0.0,67,0.00,,SCT065,0.04,VWS V14.00,2013-08-07 00:23:00,
2013-08-06 20:29:00,73.9,61.8,30.06,NE,51,0.0,0.0,66,0.00,,SCT065,0.04,VWS V14.00,2013-08-07 00:29:00,
2013-08-06 20:34:00,73.5,61.9,30.06,NE,51,0.0,0.0,67,0.00,,SCT065,0.04,VWS V14.00,2013-08-07 00:34:00,
2013-08-06 20:39:00,73.3,61.7,30.06,NE,51,3.0,3.2,67,0.00,,SCT065,0.04,VWS V14.00,2013-08-07 00:39:00,
2013-08-06 20:44:00,72.9,61.8,30.06,NE,51,0.0,2.7,68,0.00,,SCT065,0.04,VWS V14.00,2013-08-07 00:44:00,
2013-08-06 20:49:00,72.6,61.8,30.06,NE,51,0.0,0.0,69,0.00,,SCT065,0.04,VWS V14.00,2013-08-07 00:49:00,
2013-08-06 20:54:00,72.4,61.6,30.06,North,357,0.0,0.0,69,0.00,,SCT065,0.04,VWS V14.00,2013-08-07 00:54:00,
2013-08-06 20:59:00,72.2,61.5,30.06,NNE,25,0.0,2.7,69,0.00,,SCT065,0.04,VWS V14.00,2013-08-07 00:59:00,
2013-08-06 21:04:00,72.0,61.3,30.06,NE,36,0.0,3.2,69,0.00,,CLR,0.04,VWS V14.00,2013-08-07 01:04:00,
2013-08-06 21:09:00,72.0,61.7,30.06,NE,36,0.0,0.0,70,0.00,,CLR,0.04,VWS V14.00,2013-08-07 01:09:00,
2013-08-06 21:14:00,71.6,61.3,30.06,NE,37,0.0,0.0,70,0.00,,CLR,0.04,VWS V14.00,2013-08-07 01:14:00,
2013-08-06 21:19:00,71.6,61.7,30.06,NE,37,0.0,0.0,71,0.00,,CLR,0.04,VWS V14.00,2013-08-07 01:19:00,
2013-08-06 21:24:00,71.4,61.6,30.06,NE,36,0.0,0.0,71,0.00,,CLR,0.04,VWS V14.00,2013-08-07 01:24:00,
2013-08-06 21:29:00,71.4,62.0,30.06,NE,37,0.0,0.0,72,0.00,,CLR,0.04,VWS V14.00,2013-08-07 01:29:00,
2013-08-06 21:34:00,71.3,62.2,30.06,NNE,30,0.0,2.7,73,0.00,,CLR,0.04,VWS V14.00,2013-08-07 01:34:00,
2013-08-06 21:39:00,71.1,62.0,30.06,NNE,30,0.0,0.0,73,0.00,,CLR,0.04,VWS V14.00,2013-08-07 01:39:00,
2013-08-06 21:44:00,71.1,62.0,30.06,NNE,30,0.0,0.0,73,0.00,,CLR,0.04,VWS V14.00,2013-08-07 01:44:00,
2013-08-06 21:49:00,70.9,61.8,30.06,NNE,30,0.0,0.0,73,0.00,,CLR,0.04,VWS V14.00,2013-08-07 01:49:00,
2013-08-06 21:54:00,70.5,62.2,30.06,NNE,30,0.0,0.0,75,0.00,,CLR,0.04,VWS V14.00,2013-08-07 01:54:00,
2013-08-06 21:59:00,70.5,62.2,30.06,NNE,30,0.0,0.0,75,0.00,,CLR,0.04,VWS V14.00,2013-08-07 01:59:00,
2013-08-06 22:04:00,70.3,62.4,30.06,NNE,30,0.0,0.0,76,0.00,,CLR,0.04,VWS V14.00,2013-08-07 02:04:00,
2013-08-06 22:09:00,70.3,62.8,30.06,NNE,30,0.0,0.0,77,0.00,,CLR,0.04,VWS V14.00,2013-08-07 02:09:00,
2013-08-06 22:14:00,70.3,62.8,30.06,NNE,30,0.0,0.0,77,0.00,,CLR,0.04,VWS V14.00,2013-08-07 02:14:00,
2013-08-06 22:20:00,70.2,63.0,30.06,NNE,30,0.0,0.0,78,0.00,,CLR,0.04,VWS V14.00,2013-08-07 02:20:00,
2013-08-06 22:25:00,69.8,63.0,30.06,NNE,30,0.0,0.0,79,0.00,,CLR,0.04,VWS V14.00,2013-08-07 02:25:00,
2013-08-06 22:30:00,69.8,63.0,30.06,NNE,30,0.0,0.0,79,0.00,,CLR,0.04,VWS V14.00,2013-08-07 02:30:00,
2013-08-06 22:35:00,69.4,63.3,30.09,NNE,30,0.0,0.0,81,0.00,,CLR,0.04,VWS V14.00,2013-08-07 02:35:00,
2013-08-06 22:40:00,69.6,63.5,30.09,NNE,30,0.0,0.0,81,0.00,,CLR,0.04,VWS V14.00,2013-08-07 02:40:00,
2013-08-06 22:45:00,69.6,63.5,30.09,NNE,30,0.0,0.0,81,0.00,,CLR,0.04,VWS V14.00,2013-08-07 02:45:00,
2013-08-06 22:50:00,69.0,63.0,30.09,NNE,30,0.0,0.0,81,0.00,,CLR,0.04,VWS V14.00,2013-08-07 02:50:00,
2013-08-06 22:55:00,68.8,63.5,30.09,NNE,30,0.0,0.0,83,0.00,,CLR,0.04,VWS V14.00,2013-08-07 02:55:00,
2013-08-06 23:00:00,69.2,63.5,30.09,NNE,30,0.0,0.0,82,0.00,,FEW060,0.04,VWS V14.00,2013-08-07 03:00:00,
2013-08-06 23:05:00,69.2,63.2,30.09,NNE,30,0.0,0.0,81,0.00,,FEW060,0.04,VWS V14.00,2013-08-07 03:05:00,
2013-08-06 23:10:00,69.2,63.2,30.09,NNE,30,0.0,0.0,81,0.00,,FEW060,0.04,VWS V14.00,2013-08-07 03:10:00,
2013-08-06 23:15:00,69.2,63.5,30.09,NNE,30,0.0,0.0,82,0.00,,FEW060,0.04,VWS V14.00,2013-08-07 03:15:00,
2013-08-06 23:20:00,69.2,63.2,30.09,NNE,30,0.0,0.0,81,0.00,,FEW060,0.04,VWS V14.00,2013-08-07 03:20:00,
2013-08-06 23:25:00,69.2,63.2,30.09,NNE,30,0.0,0.0,81,0.00,,FEW060,0.04,VWS V14.00,2013-08-07 03:25:00,
2013-08-06 23:30:00,69.0,63.0,30.09,NNE,30,0.0,0.0,81,0.00,,FEW060,0.04,VWS V14.00,2013-08-07 03:30:00,
2013-08-06 23:36:00,69.0,63.3,30.09,NNE,30,0.0,0.0,82,0.00,,FEW060,0.04,VWS V14.00,2013-08-07 03:36:00,
2013-08-06 23:41:00,68.8,63.1,30.09,NNE,30,0.0,0.0,82,0.00,,FEW060,0.04,VWS V14.00,2013-08-07 03:41:00,
2013-08-06 23:46:00,68.8,63.5,30.09,NNE,30,0.0,0.0,83,0.00,,FEW060,0.04,VWS V14.00,2013-08-07 03:46:00,
2013-08-06 23:51:00,68.7,63.7,30.09,NNE,30,0.0,0.0,84,0.00,,FEW060,0.04,VWS V14.00,2013-08-07 03:51:00,
2013-08-06 23:56:00,68.7,63.7,30.09,NNE,30,0.0,0.0,84,0.00,,FEW060,0.04,VWS V14.00,2013-08-07 03:56:00,